Tracking 35275 objects as of 9-Sep-2026
HD Live streaming from Space Station
objects crossing your sky now

SITRO-TD-3

Track SITRO-TD-3 now!
10-day predictions
SITRO-TD-3 is classified as:


NORAD ID: 67270
Int'l Code: 2025-313Y
Launch date: December 28, 2025
Source: (TBD)
Launch site: VOSTOCHNY COSMODROME (VOSTO)

Uplink (MHz):
Downlink (MHz): 401.173
Beacon (MHz):
Mode: 2k4 GMSK_USP
Call sign: SC2345
Status: Active

Your satellite tracking list
Your tracking list is empty




NASA's NSSDC Master Catalog

Two Line Element Set (TLE):
1 67270U 25313Y   26251.76191852  .00009246  00000-0  37566-3 0  9992
2 67270  97.3883 325.2930 0015449  72.7132 287.5795 15.24673497 38687
Source of the keplerian elements: AFSPC